Temperature
20 20 20 20 24 26 25 25 25 25 24 24 24 24 24 23 23 21 18 18 19 19 18 19 19 19 19 19 19 19 19 19 19 19 19 19 19 19 19 19 19 19 19 19 19 19 19 19 19
20 20 20 22 26 26 25 25 24 24 24 23 23 23 23 22 20 19 18 18 18 18 18 18 19 19 19 19 19 19 19 19 19 19 19 19 19 19 19 19 19 19 19 19 19 19 19 19 19
20 20 22 26 26 25 24 24 24 24 23 23 23 22 21 19 18 18 18 18 18 18 18 18 18 18 18 18 18 18 18 18 18 19 19 19 18 19 19 19 19 19 19 19 19 19 18 18 18
20 21 24 26 25 24 24 24 24 24 23 23 23 22 19 17 17 17 18 18 18 18 18 18 18 18 18 18 18 18 18 18 18 18 18 18 18 18 18 18 18 18 18 18 18 18 18 18 18
21 24 26 25 24 24 24 24 24 24 23 22 23 21 19 17 17 17 18 18 18 18 18 18 18 18 18 18 18 18 18 18 18 18 18 18 18 18 18 18 18 18 18 18 18 18 18 18 18
23 26 26 25 24 24 24 23 23 23 23 22 22 21 18 17 17 17 18 18 18 18 18 17 18 18 18 18 18 18 18 18 18 18 18 18 18 18 18 18 18 18 18 18 18 18 18 18 18
24 26 26 26 24 24 23 22 23 23 22 21 21 21 18 17 17 17 17 17 17 17 17 17 17 17 17 17 17 17 17 17 18 18 18 18 18 18 18 18 18 18 18 18 18 18 18 18 18
23 26 26 25 25 24 23 22 21 22 21 19 20 20 19 17 17 17 17 17 17 17 17 17 17 17 17 17 17 17 17 17 17 17 17 18 18 18 18 18 18 18 18 18 18 18 18 18 18
23 26 26 25 25 23 22 22 21 20 20 19 19 18 17 17 17 17 17 17 17 16 16 16 16 16 16 16 16 17 17 17 17 17 17 17 17 17 17 17 17 18 18 18 18 18 18 18 18
25 26 25 24 24 24 22 22 21 21 21 19 18 17 17 17 17 17 17 17 16 16 16 16 16 16 16 16 16 16 16 16 17 17 17 17 17 17 17 17 18 18 18 18 18 17 18 18 17
25 25 23 23 22 22 22 21 21 21 21 20 19 18 17 17 17 17 17 16 16 16 15 15 15 15 15 16 16 16 16 16 16 16 17 17 17 17 17 17 17 17 17 17 17 17 17 17 17
24 23 23 22 21 22 22 21 20 20 20 18 18 17 17 17 17 16 16 16 15 15 15 15 15 15 15 15 15 15 15 15 16 16 16 16 17 17 17 17 17 17 17 17 17 17 17 17 18
25 23 21 21 21 21 21 21 20 19 18 18 17 17 17 17 17 16 16 16 15 15 15 14 14 14 14 14 14 15 15 15 15 15 16 16 16 16 16 17 17 17 17 17 17 17 17 17 18
23 22 22 21 21 21 21 20 20 19 18 18 18 17 17 17 16 16 16 16 15 15 14 14 14 14 14 14 14 14 14 14 14 15 15 15 15 16 16 16 17 17 17 17 17 17 17 17 17
22 23 22 22 22 21 21 22 21 19 18 18 18 18 17 16 16 16 15 15 15 14 14 14 13 13 13 13 13 14 14 14 14 14 14 14 15 15 15 16 16 16 17 17 17 17 17 17 17
24 24 24 23 22 21 22 23 21 19 19 19 18 18 17 16 16 16 15 15 14 14 14 13 13 13 13 13 13 13 13 13 13 13 14 14 14 14 15 15 16 16 16 16 16 17 17 17 17
25 25 25 23 22 22 22 23 21 19 19 19 19 18 18 17 16 16 15 14 14 14 13 13 13 13 13 13 13 13 13 13 13 13 13 14 14 14 14 15 15 15 16 16 16 16 16 17 17
26 26 25 24 23 22 22 23 22 20 19 19 19 19 18 18 17 16 15 14 14 14 13 13 13 13 13 13 13 12 12 13 13 13 13 13 13 14 14 14 15 15 15 16 16 16 16 16 16
26 26 25 24 22 22 23 23 22 21 20 20 19 19 19 18 17 16 15 14 14 14 13 13 13 13 12 12 12 12 12 12 12 12 13 13 13 13 13 14 14 14 15 15 15 16 16 16 16
26 26 25 23 22 22 23 23 23 21 20 20 20 19 19 17 17 16 15 14 14 13 13 13 13 12 12 12 12 12 12 12 12 12 12 12 13 13 13 13 14 14 14 15 15 15 15 16 16
25 25 25 24 22 22 22 23 23 22 20 19 19 18 18 17 16 16 15 14 14 13 13 13 12 12 12 12 12 12 12 12 12 12 12 12 13 13 13 13 13 14 14 14 14 15 15 15 16
25 24 23 23 23 24 22 24 24 22 21 20 20 19 18 17 16 15 15 14 14 13 13 13 12 12 12 12 12 12 12 12 12 12 12 12 12 12 13 13 13 13 13 14 14 14 15 15 15
24 23 23 23 23 23 23 23 25 22 22 22 20 19 18 17 16 15 15 14 14 13 13 12 12 12 12 12 12 12 12 12 12 12 12 12 12 12 12 13 13 13 13 13 14 14 14 15 15
23 23 23 23 24 23 23 23 24 24 23 22 21 19 18 17 16 15 15 14 13 13 13 12 12 12 12 12 12 12 12 12 12 12 12 12 12 12 12 12 13 13 13 13 13 14 14 14 14
24 24 24 24 24 24 22 22 23 23 22 21 20 19 18 17 16 15 15 14 13 13 13 12 12 12 12 12 12 12 11 11 11 12 12 12 12 12 12 12 12 12 13 13 13 13 14 14 14
24 24 24 23 24 24 22 22 24 22 20 19 19 18 17 17 16 15 15 14 13 13 13 12 12 12 12 12 12 11 11 11 11 11 11 11 11 11 11 12 12 12 12 13 13 13 13 14 14
24 24 24 24 23 23 24 23 23 21 21 20 19 18 18 17 16 15 15 14 14 13 13 12 12 12 11 11 11 11 11 11 11 11 11 11 11 11 11 11 12 12 12 13 13 13 13 13 13
24 23 23 23 23 23 24 23 23 23 22 21 20 19 18 17 16 16 15 14 14 13 13 12 12 12 11 11 11 11 11 11 11 11 11 11 11 11 11 11 12 12 12 12 12 13 13 13 13
22 22 23 23 22 22 23 24 23 23 22 21 21 19 18 17 16 16 15 14 14 13 13 12 12 12 12 11 11 11 11 11 11 11 11 11 11 11 11 11 11 12 12 12 12 12 12 13 13
23 23 23 23 23 22 22 23 22 22 21 20 20 19 18 17 16 16 15 14 14 13 13 13 12 12 12 11 11 11 11 11 11 11 11 11 11 11 11 11 11 11 12 12 12 12 12 12 12
Wind_Speed
9 7 4 3 3 3 7 6 5 5 5 6 6 4 5 7 5 4 4 5 3 4 6 7 6 6 7 7 7 7 6 6 6 6 6 6 6 5 4 4 4 3 3 2 1 0 1 1 2
7 5 3 3 1 5 7 6 8 8 5 3 5 5 6 8 7 5 5 5 3 3 3 3 4 3 4 5 6 7 7 7 7 7 7 6 6 6 6 5 5 5 4 3 2 1 0 1 1
6 4 3 1 3 5 5 6 6 6 7 4 4 6 5 6 7 6 7 5 3 4 3 5 3 1 2 3 4 5 6 7 7 7 7 7 7 7 7 6 6 6 6 4 3 2 1 0 1
4 3 2 3 8 6 5 5 4 3 6 7 5 7 6 7 6 7 6 5 5 5 5 7 8 6 4 4 4 5 6 6 7 7 8 8 8 8 8 8 8 7 6 5 5 3 2 1 0
3 2 2 5 6 5 5 6 5 5 4 7 6 6 6 7 8 7 7 7 6 7 7 8 10 9 8 7 6 6 6 7 8 8 9 9 9 9 9 9 9 8 7 7 6 4 4 2 1
2 2 1 4 6 5 5 6 5 7 7 6 5 6 5 6 8 8 8 7 8 7 7 8 10 9 9 8 8 8 8 8 8 9 9 9 9 9 10 10 10 9 9 8 7 6 5 4 3
2 1 2 4 5 4 4 4 6 5 7 7 4 4 4 7 7 6 7 7 8 8 8 8 9 8 8 8 9 9 9 9 8 9 9 10 10 10 10 10 10 10 10 9 8 7 6 5 4
1 1 3 2 3 4 4 4 5 6 6 5 5 4 4 5 5 5 6 7 8 8 8 8 8 8 8 7 7 9 9 9 9 9 10 11 12 12 12 12 11 11 11 10 9 8 7 6 6
2 1 1 2 2 4 5 4 5 5 7 7 7 7 6 4 3 4 6 7 7 8 8 8 9 9 8 8 7 8 8 8 9 9 10 10 10 11 11 12 8 10 11 11 10 10 9 8 9
1 0 3 3 3 5 6 5 5 5 7 7 8 7 5 4 5 6 7 8 8 9 9 8 9 9 9 8 7 7 7 7 8 9 9 9 9 9 10 7 9 11 12 12 12 11 11 12 10
2 3 5 4 5 6 6 6 4 4 4 5 5 5 5 5 5 6 7 7 8 8 9 9 9 9 9 7 7 6 6 6 7 8 8 8 9 8 9 7 8 10 12 12 11 12 11 11 9
4 5 4 6 5 5 6 6 5 4 5 6 5 4 3 4 5 6 7 8 8 9 9 10 10 10 9 9 8 7 6 6 6 7 7 6 5 6 7 7 7 7 8 8 8 7 9 10 10
4 5 6 7 7 6 7 6 5 6 6 6 5 3 3 3 4 5 6 7 8 9 10 10 10 10 10 9 8 8 7 7 8 7 7 6 6 6 5 6 6 7 7 7 6 7 8 8 9
6 9 8 7 7 5 7 6 5 6 6 6 4 2 2 3 4 5 6 8 9 10 10 10 11 11 11 9 8 8 8 7 8 7 8 8 7 6 6 7 6 6 7 6 6 7 7 7 7
9 8 7 5 5 5 5 4 4 7 7 5 4 2 0 2 4 6 7 8 9 10 10 11 11 11 11 10 10 8 8 8 7 7 8 8 8 8 7 7 6 6 7 7 7 8 7 7 8
5 5 4 5 5 5 5 3 6 8 7 5 3 2 1 2 4 5 6 8 9 10 11 11 10 11 11 10 9 8 8 8 7 8 8 8 8 8 7 7 7 7 7 6 6 7 7 7 7
6 5 4 4 6 5 6 4 5 7 7 6 5 3 2 3 4 5 6 7 8 9 10 10 11 11 11 10 8 8 8 7 7 7 7 7 8 8 8 7 7 8 6 6 7 7 6 7 6
4 5 4 3 5 7 7 6 5 8 8 7 6 5 4 4 5 5 6 7 8 9 9 10 10 10 11 9 8 7 6 6 6 6 6 7 7 8 8 7 8 7 6 6 7 7 6 5 5
3 5 5 0 2 5 8 8 6 7 9 9 8 6 5 4 4 5 6 7 8 9 10 10 10 10 9 8 8 8 7 7 6 6 7 7 7 7 7 6 7 6 7 7 8 7 7 6 5
4 5 3 2 2 4 6 9 7 7 9 8 8 6 5 5 5 5 6 6 8 9 10 10 10 10 10 8 8 7 8 7 6 5 6 7 6 6 6 6 6 6 6 7 7 7 6 5 5
3 4 3 2 2 4 6 7 6 6 7 7 8 6 5 4 6 6 6 7 7 9 10 9 10 10 10 9 7 7 6 6 5 6 5 6 6 6 6 6 6 6 6 6 7 7 8 6 6
2 0 2 3 4 2 3 5 2 4 6 7 7 6 5 4 4 5 6 7 7 8 9 9 10 10 10 9 8 9 7 7 7 7 6 6 5 5 5 6 6 6 5 6 6 7 7 7 6
3 3 2 3 5 6 4 6 1 3 4 4 4 4 4 3 3 4 5 6 7 8 8 9 9 9 10 9 8 8 8 7 7 7 7 7 6 5 5 5 5 5 5 6 6 6 7 6 7
7 5 3 4 5 5 1 4 3 1 1 0 1 2 3 2 3 3 4 5 6 7 7 8 9 9 9 9 8 8 9 9 9 8 8 7 6 5 5 5 5 5 4 5 5 6 7 7 8
5 5 4 4 4 1 1 5 4 2 1 2 2 2 2 2 2 3 4 5 6 6 7 7 8 9 9 9 9 9 9 9 8 8 8 8 6 6 6 5 5 4 4 5 5 5 6 7 7
3 4 5 4 4 2 3 4 1 1 1 3 3 2 3 3 2 3 4 4 5 6 6 7 8 8 9 9 9 9 8 7 6 8 8 7 6 6 7 6 5 5 5 5 4 4 5 5 6
3 2 3 5 4 5 3 3 2 2 4 4 4 4 4 3 3 3 3 4 4 5 5 6 7 8 8 8 9 8 9 8 8 8 8 7 7 6 7 6 6 5 4 4 4 3 4 4 5
2 3 3 4 4 3 3 3 1 1 1 3 5 5 4 4 3 3 3 3 4 4 4 5 6 7 7 8 8 7 8 8 8 8 8 8 8 7 7 7 6 5 4 3 3 3 3 3 4
5 4 3 3 3 4 3 1 2 1 2 3 4 4 4 4 4 3 3 3 3 3 4 4 5 6 6 7 8 8 8 8 8 8 8 8 7 7 6 6 6 5 4 3 3 3 3 3 4
4 4 5 4 3 3 4 2 3 2 3 5 5 4 4 5 4 4 3 3 3 3 4 4 5 5 5 6 7 7 7 7 8 8 8 8 7 7 7 6 5 5 4 3 2 2 3 3 4
Wind_Direction
171 174 192 229 224 106 72 54 46 58 60 55 56 58 64 48 24 46 37 37 59 135 150 158 172 182 187 193 199 203 205 205 205 206 205 205 206 210 216 222 227 232 240 244 235 259 68 67 52
165 171 215 244 230 97 77 55 55 51 59 70 62 57 66 59 37 36 26 18 48 108 137 142 142 192 196 203 209 214 217 218 217 218 218 217 217 219 222 228 231 237 242 242 235 237 202 85 39
171 213 256 267 58 64 73 47 48 60 53 50 71 54 50 34 14 11 10 14 56 69 62 60 40 315 252 240 238 235 232 229 229 228 226 226 227 229 232 235 237 239 240 238 233 235 227 133 40
198 221 231 85 83 60 40 25 24 60 61 45 76 78 73 33 5 8 14 30 59 56 43 47 38 24 5 327 291 271 258 251 248 246 241 239 236 236 239 240 240 239 240 239 237 235 240 231 330
238 248 132 97 89 84 55 33 38 54 63 49 66 88 72 32 31 36 39 45 52 51 39 38 37 28 16 359 333 312 293 277 266 260 255 250 244 242 243 246 245 242 242 243 238 236 241 236 244
256 248 140 104 106 108 75 48 56 63 76 59 60 89 72 38 36 40 46 51 52 50 41 36 37 26 16 3 354 340 319 300 286 275 267 260 256 252 250 249 249 246 243 242 238 235 241 242 246
307 347 92 115 123 112 85 63 49 60 65 44 23 83 92 49 37 41 52 52 50 46 39 30 22 17 15 8 360 349 334 318 304 290 278 269 264 261 258 252 252 249 245 241 237 232 235 242 247
305 183 133 134 131 105 98 89 63 44 63 46 30 66 75 42 40 48 55 51 43 36 29 20 17 7 357 350 3 351 339 329 311 291 281 274 265 259 255 254 246 247 247 243 237 233 232 236 240
264 234 136 117 115 115 128 113 83 75 84 74 66 68 69 58 57 51 45 40 32 23 16 11 3 360 351 340 347 336 327 323 308 288 275 272 263 257 249 249 252 253 250 247 241 236 232 233 224
284 22 76 62 78 122 124 108 112 115 96 92 91 86 84 75 55 42 31 23 16 10 7 4 354 348 342 338 333 324 318 312 303 294 282 271 268 265 261 262 256 257 254 249 243 240 234 234 227
46 78 104 101 103 121 124 112 112 136 93 91 100 96 83 65 47 33 25 16 7 1 360 353 345 340 336 329 324 314 304 300 296 294 289 277 270 265 258 257 248 249 247 245 228 226 232 229 230
103 89 104 119 117 124 125 126 113 88 99 103 98 95 81 55 39 25 15 8 2 1 358 351 346 339 335 329 321 310 303 299 293 289 289 283 275 271 265 256 252 254 255 253 244 238 233 237 236
122 120 106 111 115 119 123 122 117 118 122 124 121 111 74 43 24 17 5 358 355 354 352 351 342 339 336 331 320 313 308 302 297 291 284 281 276 270 267 261 253 252 255 254 251 243 240 237 239
121 124 124 127 128 135 135 131 141 146 153 152 149 126 62 25 5 357 357 352 350 349 348 346 342 339 335 329 324 319 313 303 297 292 283 276 273 270 264 261 258 253 248 250 250 244 243 238 235
134 132 138 151 150 149 164 170 170 158 172 178 179 158 24 358 351 351 352 345 347 344 342 345 340 340 337 331 327 318 311 307 301 295 287 278 272 269 264 260 254 252 250 248 249 248 248 239 228
163 180 195 171 178 176 230 243 156 171 189 200 207 206 263 337 340 348 345 341 342 340 340 341 339 339 338 335 326 319 314 313 307 300 292 285 277 270 269 263 258 252 247 242 241 241 235 238 233
205 246 257 176 193 197 233 262 167 186 204 215 222 237 266 314 337 346 343 341 340 338 337 338 341 339 339 335 326 321 318 315 311 307 301 296 288 279 270 265 263 257 247 239 239 231 228 232 232
251 266 272 235 185 216 238 252 206 202 218 230 234 247 267 306 336 344 343 340 337 339 337 338 338 338 339 336 332 328 322 320 320 317 313 307 296 286 275 266 265 264 253 244 238 235 225 226 222
283 272 279 274 164 231 250 260 241 217 223 234 240 252 274 306 329 341 339 338 338 343 342 340 336 340 341 339 334 332 330 326 324 325 325 315 306 299 282 273 268 261 254 250 243 237 230 224 212
243 265 270 162 184 251 271 270 252 226 229 238 249 258 276 304 320 337 336 339 342 344 344 341 340 341 342 338 328 321 319 315 320 321 321 320 316 307 293 278 271 259 255 250 245 232 230 222 202
232 276 289 255 190 222 279 262 215 209 226 234 243 255 270 288 313 331 338 340 341 344 346 340 339 337 340 337 330 326 324 317 326 330 324 321 318 309 300 290 280 269 260 254 247 234 226 222 208
229 111 211 215 248 268 281 299 192 200 227 232 238 241 255 272 298 322 332 338 340 344 342 340 342 341 342 339 338 336 333 331 330 327 324 319 313 309 302 293 283 275 265 256 249 239 233 225 215
99 122 183 238 266 274 239 276 241 174 246 238 233 237 249 264 294 315 326 332 338 343 342 343 345 346 348 346 344 335 336 335 333 331 331 329 327 321 313 301 287 277 268 264 257 248 238 229 223
139 156 171 217 252 261 246 271 285 177 331 5 204 222 235 257 286 306 321 328 336 342 344 345 347 349 350 348 345 346 342 340 340 342 340 335 329 325 328 317 298 286 276 267 260 251 240 236 230
207 256 263 238 233 258 120 265 278 31 306 270 270 245 235 251 282 305 317 327 335 341 344 344 347 347 350 349 349 349 346 340 340 339 337 335 332 331 332 328 312 304 292 278 266 255 246 238 234
211 272 296 300 302 308 209 255 322 80 253 240 237 233 233 245 265 290 309 320 327 336 341 342 345 346 350 351 351 348 350 344 342 339 335 332 331 333 332 328 319 310 299 287 269 264 252 242 235
192 226 326 285 288 280 246 258 262 172 218 221 225 227 235 245 254 278 299 310 320 331 339 342 342 344 349 351 349 348 348 346 342 340 339 335 333 332 334 331 328 327 313 296 279 264 255 244 236
342 155 214 260 290 289 282 263 272 180 235 230 238 241 239 238 248 267 291 304 315 326 331 338 339 341 347 348 350 349 346 347 344 341 344 342 342 338 331 331 331 327 321 304 287 268 256 248 239
171 193 225 253 281 291 309 41 81 292 297 280 266 251 240 236 244 260 283 299 306 312 323 333 337 340 347 348 349 350 352 350 348 349 348 343 345 346 343 340 336 329 325 312 297 283 268 248 241
240 232 226 259 250 258 284 293 115 248 272 272 270 251 234 232 239 249 266 281 292 303 317 331 338 341 345 346 347 351 351 354 353 353 351 348 349 349 349 345 342 337 325 312 303 285 274 256 246
Height
1539 1539 1540 1541 1539 1534 1540 1540 1537 1538 1540 1542 1542 1541 1542 1544 1547 1554 1554 1552 1553 1554 1555 1554 1555 1555 1556 1556 1556 1557 1557 1557 1557 1557 1557 1557 1557 1557 1557 1557 1557 1557 1557 1556 1556 1556 1556 1555 1555
1540 1540 1542 1541 1534 1540 1545 1541 1541 1542 1544 1544 1544 1544 1545 1548 1552 1554 1553 1553 1554 1555 1555 1556 1555 1556 1556 1556 1557 1557 1557 1557 1557 1557 1557 1557 1557 1557 1557 1557 1557 1557 1556 1556 1556 1556 1555 1555 1555
1541 1541 1543 1537 1537 1542 1546 1544 1543 1544 1545 1545 1546 1548 1550 1554 1555 1555 1554 1554 1555 1555 1555 1555 1555 1556 1556 1556 1556 1556 1556 1556 1556 1556 1556 1556 1556 1556 1556 1556 1556 1556 1556 1556 1555 1555 1555 1555 1555
1542 1543 1542 1537 1544 1546 1546 1545 1545 1545 1547 1548 1547 1551 1555 1558 1557 1556 1555 1555 1556 1555 1556 1555 1555 1555 1555 1555 1556 1555 1555 1555 1555 1555 1555 1555 1555 1555 1555 1555 1555 1555 1555 1555 1555 1554 1554 1554 1554
1542 1542 1538 1542 1545 1547 1548 1548 1547 1546 1549 1550 1549 1553 1557 1559 1558 1557 1556 1556 1556 1556 1555 1555 1555 1555 1555 1554 1554 1554 1554 1554 1554 1553 1553 1553 1553 1553 1553 1553 1553 1553 1553 1553 1553 1553 1553 1553 1554
1543 1539 1540 1545 1547 1548 1549 1550 1549 1549 1551 1552 1553 1554 1559 1560 1559 1558 1557 1557 1556 1556 1555 1555 1554 1554 1554 1553 1553 1552 1552 1552 1552 1551 1551 1552 1551 1551 1551 1551 1552 1552 1552 1552 1552 1552 1552 1553 1553
1543 1539 1541 1543 1546 1548 1550 1552 1551 1551 1552 1555 1556 1556 1560 1561 1560 1559 1558 1558 1557 1556 1555 1555 1554 1553 1552 1552 1551 1550 1550 1549 1549 1549 1549 1549 1549 1549 1549 1549 1550 1550 1550 1551 1551 1551 1551 1551 1551
1543 1541 1542 1543 1546 1549 1552 1553 1555 1555 1557 1558 1558 1558 1561 1563 1561 1560 1559 1558 1558 1556 1555 1554 1553 1552 1551 1550 1549 1548 1548 1547 1547 1547 1547 1547 1547 1547 1547 1547 1548 1548 1548 1549 1549 1549 1549 1550 1550
1543 1541 1544 1545 1546 1549 1553 1554 1557 1558 1559 1560 1560 1562 1563 1562 1562 1561 1560 1559 1558 1557 1555 1554 1552 1551 1549 1548 1547 1546 1545 1544 1544 1544 1544 1544 1544 1545 1545 1545 1545 1546 1546 1546 1547 1548 1548 1548 1549
1543 1542 1546 1547 1547 1549 1553 1555 1557 1559 1559 1561 1562 1563 1563 1563 1563 1562 1561 1559 1558 1556 1555 1553 1551 1550 1548 1546 1545 1543 1543 1542 1541 1541 1541 1541 1541 1541 1541 1541 1542 1543 1543 1544 1544 1545 1546 1546 1548
1543 1544 1548 1550 1551 1552 1554 1557 1558 1558 1560 1562 1563 1564 1564 1564 1563 1562 1561 1559 1558 1556 1554 1552 1550 1548 1546 1544 1542 1541 1540 1539 1538 1537 1537 1537 1537 1537 1538 1538 1539 1540 1541 1542 1542 1542 1544 1546 1547
1546 1549 1550 1552 1554 1554 1555 1557 1559 1560 1562 1564 1564 1565 1565 1564 1563 1562 1561 1559 1558 1555 1553 1551 1549 1547 1545 1543 1541 1539 1538 1536 1535 1534 1534 1533 1534 1534 1534 1535 1536 1537 1538 1539 1540 1541 1542 1543 1545
1546 1550 1553 1554 1555 1556 1557 1558 1560 1562 1564 1564 1565 1565 1565 1564 1563 1562 1561 1559 1557 1555 1552 1550 1547 1545 1543 1541 1538 1537 1535 1533 1532 1530 1530 1530 1530 1530 1531 1531 1532 1533 1534 1535 1536 1537 1539 1540 1542
1548 1551 1553 1555 1556 1557 1558 1559 1560 1562 1563 1564 1565 1565 1565 1564 1563 1562 1560 1558 1556 1554 1551 1549 1546 1544 1541 1539 1536 1534 1532 1530 1528 1527 1526 1526 1526 1526 1527 1527 1528 1529 1530 1531 1532 1534 1535 1537 1538
1550 1551 1554 1555 1556 1557 1558 1557 1558 1561 1562 1563 1564 1564 1564 1563 1562 1561 1559 1557 1555 1553 1550 1547 1544 1542 1539 1536 1533 1531 1529 1527 1526 1524 1523 1523 1522 1522 1523 1523 1524 1525 1526 1527 1529 1530 1531 1533 1535
1548 1548 1551 1553 1555 1557 1558 1554 1557 1560 1561 1562 1562 1563 1563 1563 1562 1560 1558 1556 1554 1551 1549 1546 1543 1540 1537 1534 1531 1529 1527 1524 1523 1521 1520 1519 1519 1519 1519 1519 1520 1521 1521 1523 1524 1526 1527 1529 1531
1545 1546 1546 1550 1553 1554 1554 1552 1556 1559 1560 1560 1561 1561 1562 1561 1561 1559 1557 1555 1553 1550 1547 1545 1542 1538 1535 1532 1529 1526 1524 1522 1520 1518 1517 1516 1515 1515 1515 1515 1516 1517 1518 1519 1520 1522 1523 1525 1527
1541 1541 1543 1546 1549 1552 1551 1550 1553 1557 1558 1558 1559 1559 1560 1559 1559 1558 1556 1554 1552 1549 1546 1543 1540 1537 1534 1530 1528 1525 1522 1520 1518 1516 1514 1513 1512 1512 1512 1512 1512 1513 1514 1515 1516 1518 1519 1521 1523
1537 1539 1542 1545 1549 1550 1548 1547 1549 1553 1555 1556 1556 1557 1557 1558 1558 1557 1555 1553 1551 1548 1545 1542 1539 1536 1532 1529 1526 1523 1520 1518 1516 1513 1511 1510 1509 1508 1508 1508 1509 1509 1510 1511 1512 1514 1515 1517 1519
1538 1540 1542 1548 1551 1549 1546 1545 1545 1549 1552 1553 1554 1555 1556 1556 1556 1555 1554 1552 1550 1547 1544 1541 1538 1535 1531 1528 1524 1522 1519 1516 1514 1511 1509 1508 1506 1506 1505 1505 1505 1505 1506 1507 1508 1509 1511 1513 1515
1539 1540 1542 1546 1550 1549 1548 1542 1542 1546 1550 1552 1553 1554 1554 1555 1554 1554 1553 1551 1549 1546 1543 1540 1537 1534 1530 1527 1524 1520 1518 1515 1513 1510 1508 1506 1504 1503 1502 1502 1502 1502 1503 1503 1504 1506 1507 1509 1511
1541 1543 1545 1547 1547 1544 1549 1546 1537 1541 1545 1548 1549 1551 1552 1553 1553 1552 1551 1550 1548 1545 1542 1539 1536 1533 1530 1526 1523 1520 1517 1514 1511 1508 1506 1504 1502 1501 1500 1499 1499 1499 1499 1500 1501 1502 1503 1505 1507
1543 1545 1545 1546 1545 1545 1545 1546 1536 1540 1541 1542 1546 1549 1551 1551 1552 1551 1550 1549 1547 1544 1541 1538 1535 1532 1529 1526 1522 1519 1516 1513 1510 1507 1505 1503 1501 1499 1498 1497 1496 1496 1496 1496 1497 1498 1499 1501 1502
1545 1546 1546 1545 1543 1548 1544 1546 1540 1535 1538 1541 1544 1547 1549 1550 1550 1550 1549 1547 1546 1543 1540 1537 1534 1531 1528 1525 1522 1519 1516 1512 1509 1507 1504 1502 1500 1498 1496 1495 1494 1494 1493 1494 1494 1495 1496 1497 1499
1543 1543 1546 1546 1547 1544 1545 1547 1539 1536 1539 1542 1544 1546 1547 1548 1549 1548 1548 1546 1545 1542 1540 1537 1534 1531 1528 1525 1522 1519 1515 1512 1509 1506 1504 1501 1499 1497 1495 1493 1492 1491 1491 1491 1491 1492 1493 1494 1495
1541 1541 1550 1554 1549 1543 1545 1544 1534 1538 1541 1543 1544 1545 1546 1547 1547 1547 1546 1545 1543 1541 1539 1536 1533 1530 1527 1524 1521 1518 1515 1512 1509 1506 1503 1501 1498 1496 1494 1492 1491 1490 1489 1489 1489 1490 1490 1491 1492
1542 1541 1542 1544 1545 1548 1538 1537 1533 1537 1539 1541 1542 1544 1544 1545 1545 1545 1545 1544 1542 1540 1538 1536 1533 1530 1527 1524 1521 1518 1515 1512 1509 1506 1503 1500 1498 1495 1493 1491 1490 1489 1488 1487 1487 1487 1488 1488 1489
1541 1541 1544 1545 1551 1547 1541 1537 1535 1534 1535 1537 1539 1541 1542 1543 1544 1544 1543 1542 1541 1539 1537 1535 1532 1530 1527 1524 1521 1517 1514 1511 1508 1506 1503 1500 1497 1494 1492 1490 1489 1487 1486 1486 1485 1485 1485 1486 1487
1545 1545 1543 1544 1547 1550 1547 1539 1530 1532 1534 1535 1537 1539 1540 1541 1542 1542 1542 1541 1539 1538 1536 1534 1532 1529 1527 1524 1521 1518 1515 1511 1508 1506 1502 1499 1497 1494 1492 1490 1488 1486 1485 1485 1484 1484 1484 1484 1485
1539 1539 1541 1545 1545 1548 1548 1540 1531 1533 1534 1535 1536 1537 1538 1539 1540 1540 1540 1539 1538 1537 1535 1534 1531 1529 1526 1523 1521 1518 1514 1511 1508 1505 1502 1499 1497 1494 1492 1489 1487 1486 1485 1484 1483 1482 1482 1483 1483